This is the latest recevied weather packets stored in our database for station/object KE5VT. If no packets are shown the sender has not sent any weather packets the latest 10 day(s).
| Time | Temp. | Humidity | Pressure | Rain* | Wind** | Luminosity | Snow |
|---|---|---|---|---|---|---|---|
| 1787666481 | 22.78° C | 63% | 1016.2 hPa | 0 mm | - | 122 W/m² | - |
| 1787666176 | 21.67° C | 64% | 1016.4 hPa | 0 mm | - | 119 W/m² | - |
| 1787665872 | 21.67° C | 65% | 1016.2 hPa | 0 mm | - | 115 W/m² | - |
| 1787665568 | 21.67° C | 65% | 1016.1 hPa | 0 mm | - | 102 W/m² | - |
| 1787665267 | 21.67° C | 66% | 1016.1 hPa | 0 mm | - | 108 W/m² | - |
| 1787664964 | 21.11° C | 68% | 1016 hPa | 0 mm | - | 102 W/m² | - |
| 1787664661 | 21.11° C | 67% | 1016.1 hPa | 0 mm | - | 91 W/m² | - |
| 1787664360 | 21.11° C | 70% | 1016.1 hPa | 0 mm | - | 88 W/m² | - |
| 1787664060 | 20.56° C | 70% | 1016.1 hPa | 0 mm | - | 79 W/m² | - |
| 1787663754 | 20.56° C | 68% | 1016 hPa | 0 mm | - | 76 W/m² | - |
| 1787663450 | 20.56° C | 68% | 1016.1 hPa | 0 mm | - | 75 W/m² | - |
| 1787663146 | 20.56° C | 68% | 1016.1 hPa | 0 mm | - | 65 W/m² | - |
| 1787662841 | 20.56° C | 70% | 1016 hPa | 0 mm | - | 54 W/m² | - |
| 1787662541 | 20.56° C | 70% | 1015.8 hPa | 0 mm | - | 56 W/m² | - |
| 1787662237 | 20.56° C | 71% | 1015.8 hPa | 0 mm | - | 68 W/m² | - |
| 1787661932 | 20.56° C | 73% | 1015.7 hPa | 0 mm | - | 65 W/m² | - |
| 1787661632 | 20° C | 73% | 1015.6 hPa | 0 mm | - | 57 W/m² | - |
| 1787661331 | 20° C | 74% | 1015.4 hPa | 0 mm | - | 56 W/m² | - |
| 1787661030 | 20° C | 75% | 1015.6 hPa | 0 mm | - | 55 W/m² | - |
| 1787660726 | 20° C | 75% | 1015.6 hPa | 0 mm | - | 51 W/m² | - |
| 1787660421 | 19.44° C | 76% | 1015.4 hPa | 0 mm | - | 44 W/m² | - |
| 1787660120 | 19.44° C | 76% | 1015.4 hPa | 0 mm | - | 37 W/m² | - |
| 1787659820 | 19.44° C | 76% | 1015.7 hPa | 0 mm | - | 32 W/m² | - |
| 1787659518 | 20° C | 75% | 1015.6 hPa | 0 mm | - | 27 W/m² | - |
| 1787659214 | 20° C | 74% | 1015.2 hPa | 0 mm | - | 24 W/m² | - |
* Rain latest hour (hover to see other rain measurements)
** Current wind speed in m/s (hover to see current wind gust speed)